Location: Shoshoni
(43.2355°N, 108.1106°W)
Time: 07:34:38
(UTC-07:00)

Amateur Radio Satellites - All Passes

Search period start: 23 November 2017 07:04
Search period end: 24 November 2017 07:04
Location: Shoshoni, 43.2355°N, 108.1106°W

Satellite Date Start Highest point End Downlink Frequencies (MHz)
Time Altitude Azimuth
XW-2B 23 Nov 07:05:53 07:09:14 30° 290° (WNW) 07:12:35 145.730 - 145.750
DOVE 4 23 Nov 07:06:19 07:08:18 12° 303° (WNW) 07:10:15 437.250
SO-50 23 Nov 07:07:51 07:11:38 25° 247° (WSW) 07:15:28 436.795
NUDT-PHONESAT 23 Nov 07:10:37 07:14:02 36° 288° (WNW) 07:17:27 437.300
ZACube-1 23 Nov 07:14:00 07:15:16 11° 89° (E) 07:16:31 437.345
FO-29 23 Nov 07:14:53 07:21:20 47° 66° (ENE) 07:28:29 435.910
HO-68 23 Nov 07:16:35 07:23:45 65° 103° (ESE) 07:30:51 435.675
SEEDS 23 Nov 07:16:56 07:21:01 45° 99° (E) 07:25:06 437.485
AAUSAT CUBESAT 2 23 Nov 07:17:19 07:20:26 20° 93° (E) 07:23:32 437.432
UWE-3 23 Nov 07:26:58 07:30:37 30° 96° (E) 07:34:17 435.000/436.395/437.385
CUTE-I 23 Nov 07:31:00 07:35:55 38° 293° (WNW) 07:40:48 437.470
XW-2C 23 Nov 07:32:27 07:34:49 16° 294° (WNW) 07:37:10 145.795 - 145.815
LilacSat-2 23 Nov 07:37:46 07:39:41 13° 296° (WNW) 07:41:36 437.200
PCSat 23 Nov 07:39:48 07:44:11 24° 44° (NE) 07:48:33 145.827
XW-2F 23 Nov 07:41:17 07:43:15 14° 295° (WNW) 07:45:14 145.980 - 146.000
XW-2A 23 Nov 07:56:17 07:59:37 63° 101° (E) 08:02:58 145.665 - 145.685
AO-73 23 Nov 08:01:28 08:05:14 33° 97° (E) 08:09:01 145.935
CUBEBUG 2 23 Nov 08:11:18 08:15:17 46° 288° (WNW) 08:19:14 437.445
STRAND 1 23 Nov 08:12:37 08:15:53 17° 269° (W) 08:19:10 437.568
Oscar 11 23 Nov 08:15:12 08:19:07 33° 97° (E) 08:23:01 .
UNISAT 6 23 Nov 08:17:12 08:20:53 25° 67° (ENE) 08:24:30 437.425
TIGRISAT 23 Nov 08:20:53 08:24:34 25° 67° (ENE) 08:28:11 435.000
CUTE 1.7 + AOD 2 23 Nov 08:27:29 08:30:37 20° 294° (WNW) 08:33:44 437.475
PRISM 23 Nov 08:34:39 08:36:34 13° 61° (ENE) 08:38:29 437.425
ZACube-1 23 Nov 08:47:51 08:51:57 63° 286° (WNW) 08:56:04 437.345
AAUSAT CUBESAT 2 23 Nov 08:52:09 08:55:59 35° 289° (WNW) 08:59:47 437.432
SEEDS 23 Nov 08:53:33 08:56:20 17° 295° (WNW) 08:59:08 437.485
FO-29 23 Nov 09:00:21 09:06:29 37° 267° (W) 09:13:17 435.910
DELFI C3 23 Nov 09:00:49 09:03:51 21° 94° (E) 09:06:51 145.870
UWE-3 23 Nov 09:03:40 09:06:57 23° 293° (WNW) 09:10:13 435.000/436.395/437.385
HO-68 23 Nov 09:05:08 09:10:56 27° 302° (WNW) 09:16:43 435.675
PCSat 23 Nov 09:22:39 09:28:00 62° 244° (WSW) 09:33:18 145.827
EO-88 23 Nov 09:29:10 09:31:54 20° 94° (E) 09:34:37 145.990 - 145.960
FALCONSAT 3 23 Nov 09:33:51 09:36:32 19° 168° (SSE) 09:39:14 435.103
Max Valier Satellite 23 Nov 09:35:59 09:39:22 34° 98° (E) 09:42:44 145.860
AO-73 23 Nov 09:38:08 09:41:17 21° 293° (WNW) 09:44:26 145.935
Oscar 11 23 Nov 09:51:37 09:55:05 24° 293° (WNW) 09:58:33 .
QB50P2 23 Nov 09:53:00 09:54:32 12° 61° (ENE) 09:56:03 145.880/145.840
UNISAT 6 23 Nov 09:53:19 09:57:26 33° 263° (W) 10:01:30 437.425
TIGRISAT 23 Nov 09:56:59 10:01:06 33° 263° (W) 10:05:09 435.000
BEESAT 2 23 Nov 10:04:51 10:06:26 12° 36° (NE) 10:08:00 435.950
PRISM 23 Nov 10:07:13 10:11:18 62° 258° (WSW) 10:15:26 437.425
BEESAT 3 23 Nov 10:23:30 10:27:15 40° 50° (NE) 10:30:56 437.485
DELFI C3 23 Nov 10:35:04 10:38:38 31° 290° (WNW) 10:42:09 145.870
DUCHIFAT 1 23 Nov 10:36:30 10:39:49 23° 67° (ENE) 10:43:09 145.980
AO-85 23 Nov 10:43:51 10:46:34 15° 37° (NE) 10:49:22 145.980
EO-79 23 Nov 10:46:18 10:50:11 37° 71° (ENE) 10:54:06 145.935-145.965
NANOSAT C BR1 23 Nov 10:47:56 10:51:45 34° 70° (ENE) 10:55:34 145.865
AIST 2D 23 Nov 10:51:47 10:55:10 58° 259° (W) 10:58:36 435.315
POLYITAN 1 23 Nov 11:02:03 11:06:11 55° 73° (ENE) 11:10:19 437.675
EO-88 23 Nov 11:02:24 11:05:32 27° 290° (WNW) 11:08:38 145.990 - 145.960
Max Valier Satellite 23 Nov 11:10:34 11:12:55 16° 294° (WNW) 11:15:16 145.860
FALCONSAT 3 23 Nov 11:12:03 11:15:03 24° 183° (S) 11:18:04 435.103
LO-87 23 Nov 11:18:21 11:21:50 54° 100° (E) 11:25:16 145.935 - 145.965
BUGSAT 1 23 Nov 11:19:45 11:22:31 17° 65° (ENE) 11:25:16 437.445
ESTCUBE 1 23 Nov 11:25:29 11:29:51 46° 99° (E) 11:34:12 437.505/2401.250
QB50P2 23 Nov 11:25:30 11:29:43 72° 257° (WSW) 11:33:58 145.880/145.840
BEESAT 2 23 Nov 11:40:49 11:44:52 75° 54° (NE) 11:48:50 435.950
Oscar 19 23 Nov 11:46:13 11:50:07 23° 63° (ENE) 11:54:03 437.125/150
BEESAT 3 23 Nov 12:01:42 12:04:30 19° 248° (WSW) 12:07:15 437.485
DUCHIFAT 1 23 Nov 12:11:32 12:15:19 32° 263° (W) 12:19:06 145.980
SPROUT 23 Nov 12:12:49 12:16:44 35° 97° (E) 12:20:37 437.525
AO-91 23 Nov 12:18:52 12:23:55 42° 70° (ENE) 12:28:56 145.960
AO-85 23 Nov 12:22:57 12:27:39 80° 56° (NE) 12:32:41 145.980
EO-79 23 Nov 12:22:58 12:26:04 20° 267° (W) 12:29:10 145.935-145.965
NANOSAT C BR1 23 Nov 12:24:18 12:27:31 21° 266° (W) 12:30:45 145.865
Gurwin Techsat 1B 23 Nov 12:30:34 12:35:30 41° 69° (ENE) 12:40:28 435.225
POLYITAN 1 23 Nov 12:40:13 12:42:18 13° 269° (W) 12:44:21 437.675
FALCONSAT 3 23 Nov 12:51:24 12:53:31 15° 198° (SSW) 12:55:38 435.103
BUGSAT 1 23 Nov 12:53:33 12:57:32 43° 261° (W) 13:01:31 437.445
LO-87 23 Nov 12:54:03 12:54:45 10° 297° (WNW) 12:55:27 145.935 - 145.965
O/OREOS (USA 219) 23 Nov 13:01:59 13:06:34 72° 110° (ESE) 13:11:09 437.305
ESTCUBE 1 23 Nov 13:03:06 13:06:18 19° 296° (WNW) 13:09:30 437.505/2401.250
AO-7 23 Nov 13:03:54 13:10:26 27° 53° (NE) 13:16:59 .
VELOX 1 23 Nov 13:10:59 13:15:29 86° 284° (WNW) 13:19:54 145.980
BEESAT 2 23 Nov 13:21:21 13:21:57 10° 252° (WSW) 13:22:33 435.950
Oscar 19 23 Nov 13:24:12 13:29:07 48° 260° (W) 13:34:05 437.125/150
NO-84 23 Nov 13:35:18 13:37:55 20° 126° (SE) 13:40:43 435.350 FM
ITAMSAT 1 23 Nov 13:44:46 13:48:19 19° 61° (ENE) 13:51:52 435.822/435.867
M-CUBED/EXP-1 PRIME 23 Nov 13:47:00 13:50:37 75° 68° (ENE) 13:54:33 437.505
DX 1 23 Nov 13:48:13 13:52:31 53° 101° (E) 13:56:47 434.975-435.025
SPROUT 23 Nov 13:49:11 13:52:24 21° 294° (WNW) 13:55:36 437.525
50 SAT 23 Nov 13:53:14 13:56:28 78° 102° (ESE) 13:59:39 437.505
AO-91 23 Nov 13:55:49 14:00:24 28° 266° (W) 14:05:00 145.960
AO-85 23 Nov 14:05:05 14:07:34 14° 251° (WSW) 14:10:07 145.980
Gurwin Techsat 1B 23 Nov 14:11:07 14:15:33 27° 266° (W) 14:20:02 435.225
UKube-1 23 Nov 14:24:39 14:29:00 83° 104° (ESE) 14:33:18 .
MOZHAYETS 4 23 Nov 14:43:04 14:46:51 25° 94° (E) 14:50:38
O/OREOS (USA 219) 23 Nov 14:43:50 14:46:30 15° 310° (NW) 14:49:11 437.305
BEESAT 23 Nov 14:44:38 14:48:06 20° 93° (E) 14:51:32 436.000
YUBILEINY 23 Nov 14:48:54 14:55:14 21° 61° (ENE) 15:01:31 435.215
AO-7 23 Nov 14:54:07 15:02:24 78° 253° (WSW) 15:10:45 .
ITUPSAT 1 23 Nov 14:55:50 14:59:44 25° 95° (E) 15:03:37 437.325
DOVE 4 23 Nov 14:56:53 14:59:47 15° 59° (ENE) 15:02:43 437.250
NO-84 23 Nov 15:11:17 15:14:53 55° 325° (NW) 15:18:48 435.350 FM
ITAMSAT 1 23 Nov 15:22:05 15:27:16 63° 258° (WSW) 15:32:28 435.822/435.867
DX 1 23 Nov 15:25:34 15:28:16 16° 298° (WNW) 15:30:57 434.975-435.025
UKube-1 23 Nov 16:03:15 16:04:21 11° 301° (WNW) 16:05:26 .
HO-68 23 Nov 16:04:34 16:06:41 11° 46° (NE) 16:08:48 435.675
XW-2B 23 Nov 16:15:50 16:17:13 12° 63° (ENE) 16:18:35 145.730 - 145.750
KKS-1 23 Nov 16:17:03 16:18:40 12° 89° (E) 16:20:17 437.445
MOZHAYETS 4 23 Nov 16:19:56 16:24:02 33° 291° (WNW) 16:28:07
BEESAT 23 Nov 16:21:32 16:26:05 46° 290° (WNW) 16:30:35 436.000
DOVE 4 23 Nov 16:31:37 16:36:42 80° 257° (WSW) 16:42:01 437.250
ITUPSAT 1 23 Nov 16:33:16 16:37:38 37° 291° (WNW) 16:41:57 437.325
CUBESAT XI-V 23 Nov 16:38:13 16:42:56 88° 291° (WNW) 16:47:38 437.345
XW-2C 23 Nov 16:39:51 16:42:46 22° 68° (ENE) 16:45:42 145.795 - 145.815
YUBILEINY 23 Nov 16:44:25 16:53:20 89° 262° (W) 17:02:10 435.215
LilacSat-2 23 Nov 16:45:00 16:48:13 27° 70° (ENE) 16:51:26 437.200
XW-2F 23 Nov 16:47:44 16:50:49 25° 69° (ENE) 16:53:54 145.980 - 146.000
NO-84 23 Nov 16:50:08 16:52:58 19° 346° (NNW) 16:55:55 435.350 FM
AO-7 23 Nov 16:51:58 16:56:25 15° 272° (W) 17:00:55 .
RS-15 23 Nov 16:56:31 17:06:23 30° 102° (ESE) 17:16:12 29.354- 29.394
KAITUO 1B 23 Nov 17:10:23 17:13:45 35° 72° (ENE) 17:17:09 145.475/437.950
CUTE-I 23 Nov 17:13:43 17:18:54 53° 71° (ENE) 17:24:09 437.470
XW-2D 23 Nov 17:32:13 17:35:56 81° 257° (WSW) 17:39:42 145.860 - 145.880
CUBEBUG 2 23 Nov 17:34:57 17:37:47 17° 64° (ENE) 17:40:34 437.445
CUTE 1.7 + AOD 2 23 Nov 17:44:34 17:48:15 31° 69° (ENE) 17:51:57 437.475
HO-68 23 Nov 17:45:54 17:52:49 53° 67° (ENE) 17:59:47 435.675
XW-2B 23 Nov 17:47:15 17:50:54 54° 260° (W) 17:54:35 145.730 - 145.750
NUDT-PHONESAT 23 Nov 17:49:45 17:53:23 74° 258° (WSW) 17:57:02 437.300
KKS-1 23 Nov 17:51:14 17:55:41 69° 286° (WNW) 18:00:05 437.445
STARS 23 Nov 18:07:21 18:11:45 72° 102° (ESE) 18:16:05 437.465
AAUSAT CUBESAT 2 23 Nov 18:08:53 18:11:23 16° 64° (ENE) 18:13:55 437.432
SEEDS 23 Nov 18:09:21 18:13:07 34° 70° (ENE) 18:16:56 437.485
ZACube-1 23 Nov 18:11:18 18:12:37 11° 62° (ENE) 18:13:57 437.345
XW-2C 23 Nov 18:13:42 18:16:49 25° 265° (W) 18:19:59 145.795 - 145.815
CUBESAT XI-V 23 Nov 18:18:15 18:19:33 11° 301° (WNW) 18:20:51 437.345
LilacSat-2 23 Nov 18:19:36 18:22:29 21° 266° (W) 18:25:22 437.200
XW-2F 23 Nov 18:21:56 18:24:52 22° 266° (W) 18:27:49 145.980 - 146.000
UWE-3 23 Nov 18:24:40 18:28:27 29° 69° (ENE) 18:32:11 435.000/436.395/437.385
XW-2A 23 Nov 18:28:30 18:31:10 23° 69° (ENE) 18:33:50 145.665 - 145.685
NO-84 23 Nov 18:28:54 18:31:34 16° 8° (N) 18:34:18 435.350 FM
STRAND 1 23 Nov 18:41:36 18:45:13 19° 92° (E) 18:48:48 437.568
YUBILEINY 23 Nov 18:43:14 18:48:49 19° 284° (WNW) 18:54:25 435.215
KAITUO 1B 23 Nov 18:45:38 18:47:52 15° 268° (W) 18:50:05 145.475/437.950
CUTE-I 23 Nov 18:55:17 18:59:16 21° 268° (W) 19:03:15 437.470
AO-73 23 Nov 18:57:47 19:01:30 30° 69° (ENE) 19:05:10 145.935
RS-15 23 Nov 19:05:12 19:17:35 83° 305° (NW) 19:29:53 29.354- 29.394
ISS 23 Nov 19:07:14 19:09:09 15° 132° (SE) 19:11:06 437.550
CUBEBUG 2 23 Nov 19:09:34 19:14:01 53° 260° (W) 19:18:21 437.445
Oscar 11 23 Nov 19:10:56 19:14:36 28° 68° (ENE) 19:18:18 .
CUTE 1.7 + AOD 2 23 Nov 19:20:44 19:24:06 23° 266° (W) 19:27:30 437.475
HO-68 23 Nov 19:34:34 19:40:48 31° 265° (W) 19:47:05 435.675
AAUSAT CUBESAT 2 23 Nov 19:42:28 19:46:26 48° 261° (W) 19:50:28 437.432
ZACube-1 23 Nov 19:44:03 19:48:20 74° 257° (WSW) 19:52:34 437.345
STARS 23 Nov 19:45:35 19:47:29 13° 300° (WNW) 19:49:22 437.465
SEEDS 23 Nov 19:45:46 19:48:53 20° 267° (W) 19:52:02 437.485
DELFI C3 23 Nov 19:47:42 19:49:54 14° 64° (ENE) 19:52:05 145.870
nSIGHT-1 23 Nov 19:48:36 19:51:40 44° 142° (SE) 19:54:46 .
UWE-3 23 Nov 20:01:09 20:04:52 26° 265° (W) 20:08:32 435.000/436.395/437.385
XW-2A 23 Nov 20:01:24 20:03:49 19° 266° (W) 20:06:13 145.665 - 145.685
NO-84 23 Nov 20:06:04 20:09:55 34° 28° (NNE) 20:13:49 435.350 FM
FO-29 23 Nov 20:08:07 20:15:24 41° 95° (E) 20:22:12 435.910
EO-88 23 Nov 20:09:26 20:10:23 11° 63° (ENE) 20:11:20 145.990 - 145.960
Max Valier Satellite 23 Nov 20:16:12 20:18:46 19° 67° (ENE) 20:21:21 145.860
STRAND 1 23 Nov 20:19:44 20:24:43 53° 289° (WNW) 20:29:39 437.568
AO-73 23 Nov 20:34:15 20:37:44 24° 265° (W) 20:41:10 145.935
ISS 23 Nov 20:42:00 20:45:16 72° 329° (NNW) 20:48:32 437.550
Oscar 11 23 Nov 20:47:05 20:50:42 26° 265° (W) 20:54:20 .
DELFI C3 23 Nov 21:20:23 21:24:13 49° 261° (W) 21:28:06 145.870
RS-15 23 Nov 21:21:13 21:32:09 35° 332° (NNW) 21:42:54 29.354- 29.394
SO-50 23 Nov 21:21:59 21:26:26 82° 121° (ESE) 21:30:57 436.795
nSIGHT-1 23 Nov 21:25:05 21:28:00 31° 339° (NNW) 21:30:54 .
O/OREOS (USA 219) 23 Nov 21:32:36 21:35:55 19° 53° (NE) 21:39:11 437.305
EO-88 23 Nov 21:40:00 21:43:33 55° 260° (W) 21:47:06 145.990 - 145.960
NO-84 23 Nov 21:43:19 21:47:25 50° 226° (SW) 21:51:31 435.350 FM
UNISAT 6 23 Nov 21:43:23 21:47:28 44° 99° (E) 21:51:31 437.425
TIGRISAT 23 Nov 21:46:53 21:50:58 43° 99° (E) 21:55:00 435.000
PRISM 23 Nov 21:48:21 21:50:59 16° 92° (E) 21:53:37 437.425
Max Valier Satellite 23 Nov 21:49:10 21:52:23 29° 263° (W) 21:55:37 145.860
FO-29 23 Nov 21:53:03 22:00:25 46° 294° (WNW) 22:07:21 435.910
LO-87 23 Nov 21:55:13 21:58:13 25° 70° (ENE) 22:01:13 145.935 - 145.965
ISS 23 Nov 22:19:32 22:22:10 22° 348° (NNW) 22:24:47 437.550
PCSat 23 Nov 22:24:48 22:27:34 14° 103° (ESE) 22:30:21 145.827
ESTCUBE 1 23 Nov 22:25:41 22:29:58 47° 71° (ENE) 22:34:17 437.505/2401.250
VELOX 1 23 Nov 22:36:18 22:37:23 11° 59° (ENE) 22:38:27 145.980
nSIGHT-1 23 Nov 23:02:38 23:04:55 18° 359° (N) 23:07:12 .
SO-50 23 Nov 23:04:33 23:07:29 17° 323° (NW) 23:10:26 436.795
SPROUT 23 Nov 23:06:50 23:10:36 31° 69° (ENE) 23:14:23 437.525
QB50P2 23 Nov 23:10:14 23:12:56 16° 92° (E) 23:15:37 145.880/145.840
O/OREOS (USA 219) 23 Nov 23:11:13 23:15:36 49° 252° (WSW) 23:19:57 437.305
UNISAT 6 23 Nov 23:20:59 23:23:51 18° 296° (WNW) 23:26:41 437.425
PRISM 23 Nov 23:22:30 23:26:28 43° 289° (WNW) 23:30:23 437.425
TIGRISAT 23 Nov 23:24:28 23:27:19 18° 296° (WNW) 23:30:10 435.000
LO-87 23 Nov 23:28:48 23:31:34 21° 266° (W) 23:34:21 145.935 - 145.965
RS-15 23 Nov 23:39:50 23:49:35 26° 7° (N) 23:59:00 29.354- 29.394
FO-29 23 Nov 23:42:00 23:43:27 11° 315° (NW) 23:44:54 435.910
AIST 2D 23 Nov 23:48:20 23:51:48 55° 285° (WNW) 23:55:15 435.315
DUCHIFAT 1 23 Nov 23:53:55 23:57:43 33° 97° (E) 00:01:29 145.980
ISS 23 Nov 23:56:57 23:59:27 20° 8° (N) 00:01:56 437.550
ESTCUBE 1 24 Nov 00:04:03 00:07:00 17° 268° (W) 00:10:00 437.505/2401.250
PCSat 24 Nov 00:04:48 00:10:13 82° 301° (WNW) 00:15:41 145.827
EO-79 24 Nov 00:04:58 00:09:07 60° 101° (E) 00:13:14 145.935-145.965
NANOSAT C BR1 24 Nov 00:06:06 00:10:12 54° 100° (E) 00:14:17 145.865
VELOX 1 24 Nov 00:08:40 00:13:06 87° 260° (W) 00:17:35 145.980
50 SAT 24 Nov 00:21:08 00:23:50 25° 70° (ENE) 00:26:32 437.505
POLYITAN 1 24 Nov 00:21:09 00:25:21 89° 282° (WNW) 00:29:32 437.675
BUGSAT 1 24 Nov 00:34:28 00:37:40 22° 95° (E) 00:40:49 437.445
nSIGHT-1 24 Nov 00:39:03 00:41:53 28° 19° (NNE) 00:44:41 .
SPROUT 24 Nov 00:43:01 00:46:30 24° 265° (W) 00:49:59 437.525
DX 1 24 Nov 00:44:19 00:48:33 52° 72° (ENE) 00:52:49 434.975-435.025
QB50P2 24 Nov 00:44:56 00:48:55 43° 289° (WNW) 00:52:53 145.880/145.840
Gurwin Techsat 1B 24 Nov 00:47:04 00:49:53 14° 89° (E) 00:52:41 435.225
UKube-1 24 Nov 01:19:33 01:23:52 79° 74° (ENE) 01:28:12 .
DUCHIFAT 1 24 Nov 01:30:00 01:33:10 21° 294° (WNW) 01:36:20 145.980
ISS 24 Nov 01:33:15 01:36:28 51° 28° (NNE) 01:39:38 437.550
Oscar 19 24 Nov 01:34:19 01:39:23 54° 100° (E) 01:44:26 437.125/150
EO-79 24 Nov 01:42:19 01:44:23 13° 298° (WNW) 01:46:26 145.935-145.965
NANOSAT C BR1 24 Nov 01:43:10 01:45:28 15° 297° (WNW) 01:47:45 145.865
AO-91 24 Nov 01:44:50 01:49:20 68° 101° (E) 01:53:19 145.960
MOZHAYETS 4 24 Nov 01:45:51 01:49:42 28° 67° (ENE) 01:53:34
BEESAT 3 24 Nov 01:50:28 01:54:18 49° 118° (ESE) 01:58:10 437.485
PCSat 24 Nov 01:51:01 01:54:29 17° 322° (NW) 01:57:57 145.827
BEESAT 24 Nov 01:51:46 01:55:44 27° 66° (ENE) 01:59:41 436.000
50 SAT 24 Nov 01:53:48 01:55:54 16° 266° (W) 01:58:01 437.505
RS-15 24 Nov 01:54:33 02:06:03 48° 40° (NE) 02:16:55 29.354- 29.394
ITUPSAT 1 24 Nov 02:03:18 02:07:34 33° 68° (ENE) 02:11:50 437.325
CUBESAT XI-V 24 Nov 02:08:21 02:10:04 12° 60° (ENE) 02:11:47 437.345
BUGSAT 1 24 Nov 02:09:31 02:13:01 29° 291° (WNW) 02:16:29 437.445
nSIGHT-1 24 Nov 02:15:08 02:18:16 55° 217° (SW) 02:21:23 .
DX 1 24 Nov 02:22:30 02:25:02 15° 269° (W) 02:27:35 434.975-435.025
Gurwin Techsat 1B 24 Nov 02:25:04 02:30:23 75° 286° (WNW) 02:35:41 435.225
AO-85 24 Nov 02:40:18 02:42:45 16° 110° (ESE) 02:45:15 145.980
AO-7 24 Nov 02:54:55 03:02:17 33° 97° (E) 03:09:36 .
M-CUBED/EXP-1 PRIME 24 Nov 02:57:37 03:02:06 49° 105° (ESE) 03:06:36 437.505
BEESAT 2 24 Nov 03:09:34 03:13:34 84° 301° (WNW) 03:17:38 435.950
ISS 24 Nov 03:10:10 03:12:44 21° 225° (SW) 03:15:17 437.550
Oscar 19 24 Nov 03:14:32 03:18:18 21° 298° (WNW) 03:22:06 437.125/150
KKS-1 24 Nov 03:15:54 03:18:14 14° 61° (ENE) 03:20:33 437.445
MOZHAYETS 4 24 Nov 03:22:44 03:26:45 30° 264° (W) 03:30:47
AO-91 24 Nov 03:23:06 03:25:02 13° 301° (WNW) 03:26:55 145.960
BEESAT 24 Nov 03:28:59 03:33:21 35° 263° (W) 03:37:42 436.000
BEESAT 3 24 Nov 03:29:06 03:32:05 20° 317° (NW) 03:35:04 437.485
ITAMSAT 1 24 Nov 03:33:56 03:38:51 41° 98° (E) 03:43:45 435.822/435.867
ITUPSAT 1 24 Nov 03:41:20 03:45:23 28° 264° (W) 03:49:29 437.325
CUBESAT XI-V 24 Nov 03:42:09 03:46:44 82° 257° (WSW) 03:51:23 437.345
YUBILEINY 24 Nov 03:52:55 03:59:03 22° 78° (ENE) 04:05:12 435.215
RS-15 24 Nov 04:07:28 04:18:59 62° 246° (WSW) 04:29:53 29.354- 29.394
Gurwin Techsat 1B 24 Nov 04:07:48 04:09:24 11° 305° (NW) 04:11:00 435.225
SO-50 24 Nov 04:12:37 04:15:40 17° 37° (NE) 04:18:44 436.795
AO-85 24 Nov 04:18:58 04:22:43 45° 309° (NW) 04:26:40 145.980
DOVE 4 24 Nov 04:30:11 04:34:35 28° 93° (E) 04:38:45 437.250
M-CUBED/EXP-1 PRIME 24 Nov 04:32:43 04:36:07 21° 300° (WNW) 04:39:33 437.505
AO-7 24 Nov 04:47:15 04:55:23 59° 295° (WNW) 05:03:31 .
KKS-1 24 Nov 04:49:47 04:54:14 66° 258° (WSW) 04:58:43 437.445
BEESAT 2 24 Nov 04:50:03 04:51:57 13° 323° (NW) 04:53:51 435.950
STARS 24 Nov 05:04:23 05:08:47 72° 74° (ENE) 05:13:12 437.465
ITAMSAT 1 24 Nov 05:13:49 05:18:07 27° 296° (WNW) 05:22:23 435.822/435.867
XW-2B 24 Nov 05:19:42 05:21:45 14° 91° (E) 05:23:48 145.730 - 145.750
CUTE-I 24 Nov 05:30:33 05:34:21 19° 92° (E) 05:38:07 437.470
XW-2C 24 Nov 05:44:29 05:47:48 27° 96° (E) 05:51:05 145.795 - 145.815
YUBILEINY 24 Nov 05:45:58 05:54:44 82° 278° (W) 06:03:37 435.215
LilacSat-2 24 Nov 05:50:35 05:54:08 35° 97° (E) 05:57:41 437.200
XW-2F 24 Nov 05:51:53 05:55:18 31° 96° (E) 05:58:43 145.980 - 146.000
SO-50 24 Nov 05:52:04 05:56:43 86° 239° (WSW) 06:01:26 436.795
STRAND 1 24 Nov 05:58:06 06:02:36 31° 66° (ENE) 06:07:06 437.568
DOVE 4 24 Nov 06:07:36 06:12:16 36° 292° (WNW) 06:16:43 437.250
KAITUO 1B 24 Nov 06:13:39 06:17:17 44° 99° (E) 06:20:54 145.475/437.950
FO-29 24 Nov 06:22:02 06:27:10 22° 55° (NE) 06:32:36 435.910
RS-15 24 Nov 06:24:48 06:28:35 12° 268° (W) 06:32:20 29.354- 29.394
XW-2D 24 Nov 06:37:25 06:41:12 62° 285° (WNW) 06:44:57 145.860 - 145.880
AO-7 24 Nov 06:42:14 06:46:26 15° 317° (NW) 06:50:39 .
STARS 24 Nov 06:44:16 06:45:35 11° 271° (W) 06:46:56 437.465
NUDT-PHONESAT 24 Nov 06:52:12 06:55:53 61° 285° (WNW) 06:59:32 437.300
XW-2B 24 Nov 06:52:30 06:56:07 42° 288° (WNW) 06:59:44 145.730 - 145.750
